Farmingdale, NY

4:49 AM EDT on May 28, 2018 (GMT -0400)
Republic

Weather History for KFRG - August, 2014

Change the Weather History Date:

Wednesday, August 27, 2014

  Actual Average Record
Temperature  
Mean Temperature 74 °F -  
Max Temperature 84 °F 77 °F 89 °F (2003)
Min Temperature 66 °F 63 °F 57 °F (2017)
Cooling Degree Days 9    
Growing Degree Days 24 (Base 50)    
Moisture  
Dew Point 64 °F    
Average Humidity 72    
Maximum Humidity 87    
Minimum Humidity 51    
Precipitation  
Precipitation 0.00 in - - ()
Sea Level Pressure  
Sea Level Pressure 29.98 in    
Wind  
Wind Speed 5 mph (SSW)    
Max Wind Speed 14 mph    
Max Gust Speed -    
Visibility 10 miles    
Events      
Averages and records for this station are not official NWS values.
T = Trace of Precipitation, MM = Missing Value Source: NWS Daily Summary

Daily Weather History Graph

Daily Weather History Graph

Search for Another Location

Airport or City:

Astronomy

Aug. 27, 2014 Rise Set
Actual Time 6:15 AM EDT 7:33 PM EDT
Civil Twilight 5:47 AM EDT 8:02 PM EDT
Nautical Twilight 5:13 AM EDT 8:36 PM EDT
Astronomical Twilight 4:37 AM EDT 9:11 PM EDT
Moon 8:10 AM EDT (8/27) 8:23 PM EDT (8/27)
Length of Visible Light 14h 14m
Length of Day
13h 18m
Waxing Crescent, 4% of the Moon is Illuminated
Aug 27
Waxing Crescent
Sep 2
First Quarter
Sep 8
Full
Sep 15
Last Quarter
Sep 24
New

Hourly Weather History & Observations

Time (EDT) Temp. Heat Index Dew Point Humidity Pressure Visibility Wind Dir Wind Speed Gust Speed Precip Events Conditions
12:53 AM 69.1 °F - 62.1 °F 78% 30.07 in 10.0 mi SW 4.6 mph - N/A   Clear
1:53 AM 68.0 °F - 62.1 °F 81% 30.06 in 10.0 mi West 4.6 mph - N/A   Clear
2:53 AM 68.0 °F - 62.1 °F 81% 30.05 in 10.0 mi Calm Calm - N/A   Clear
3:53 AM 66.0 °F - 62.1 °F 87% 30.04 in 10.0 mi Calm Calm - N/A   Clear
4:53 AM 66.0 °F - 62.1 °F 87% 30.04 in 10.0 mi Calm Calm - N/A   Clear
5:53 AM 66.0 °F - 61.0 °F 84% 30.03 in 10.0 mi Calm Calm - N/A   Clear
6:53 AM 66.0 °F - 62.1 °F 87% 30.04 in 10.0 mi Calm Calm - N/A   Clear
7:53 AM 70.0 °F - 63.0 °F 78% 30.06 in 10.0 mi SW 5.8 mph - N/A   Clear
8:53 AM 73.9 °F - 66.0 °F 76% 30.05 in 10.0 mi SSW 11.5 mph - N/A   Clear
9:53 AM 75.9 °F - 66.0 °F 71% 30.04 in 10.0 mi SW 10.4 mph - N/A   Clear
10:53 AM 78.1 °F - 66.0 °F 66% 30.03 in 10.0 mi South 8.1 mph - N/A   Clear
11:53 AM 80.1 °F 81.9 °F 64.9 °F 60% 30.00 in 10.0 mi SSW 11.5 mph - N/A   Clear
12:53 PM 81.0 °F 82.7 °F 64.9 °F 58% 29.98 in 10.0 mi SSW 10.4 mph - N/A   Clear
1:53 PM 82.9 °F 84.6 °F 64.9 °F 54% 29.96 in 10.0 mi SSW 13.8 mph - N/A   Clear
3:53 PM 82.9 °F 84.0 °F 63.0 °F 51% 29.92 in 10.0 mi SSW 11.5 mph - N/A   Clear
4:53 PM 82.0 °F 83.4 °F 64.0 °F 54% 29.91 in 10.0 mi South 12.7 mph - N/A   Clear
5:53 PM 81.0 °F 81.9 °F 62.1 °F 52% 29.89 in 10.0 mi SW 11.5 mph - N/A   Clear
6:53 PM 78.1 °F - 63.0 °F 60% 29.89 in 10.0 mi SSW 10.4 mph - N/A   Clear
7:53 PM 75.0 °F - 66.0 °F 73% 29.89 in 10.0 mi SSW 10.4 mph - N/A   Clear
8:53 PM 75.0 °F - 66.9 °F 76% 29.91 in 10.0 mi SW 6.9 mph - N/A   Clear
9:53 PM 75.0 °F - 66.9 °F 76% 29.90 in 10.0 mi NNW 4.6 mph - N/A   Mostly Cloudy
10:53 PM 73.0 °F - 66.9 °F 81% 29.89 in 10.0 mi South 5.8 mph - N/A   Clear
11:53 PM 73.0 °F - 68.0 °F 84% 29.87 in 10.0 mi Calm Calm - N/A   Partly Cloudy